This demonstration page uses our WeatherBlox Daily Observations layout. Learn more.

Left ArrowRight Arrow

38.88101, -77.10428

Hourly Observations for January 3, 2017

Temp ( °F °C ) Dew Point ( °F °C ) Humidity (%) Winds ( mph kmh ) Pressure ( in mb ) Visibility ( mi km ) Precip ( " mm )
12:52 am 00:52 Cloudy with Drizzle 43 6.1 43 6.1 100 100 NE 8 13 30.15 1021 2 3 0.00 0.00
1:27 am 01:27 Cloudy with Drizzle 43 6.1 42 5.6 97 97 NNE 9 15 30.15 1021 3 5 0.00 0.00
1:50 am 01:50 Cloudy with Drizzle 43 6 43 6 100 100 NNE 9 15 30.12 1020 3 4 N/A
1:52 am 01:52 Cloudy with Drizzle 43 6.1 42 5.6 97 97 NNE 9 15 30.12 1020 3 4 0.00 0.00
2:52 am 02:52 Cloudy with Drizzle 43 6.1 43 6.1 100 100 NNE 6 9 30.11 1020 3 4 0.01 0.25
3:48 am 03:48 Cloudy with Drizzle 43 6 43 6 100 100 NNE 7 11 30.09 1019 2 3 N/A
3:52 am 03:52 Cloudy with Drizzle 43 6.1 43 6.1 100 100 NNE 7 11 30.08 1019 2 3 0.01 0.25
3:58 am 03:58 Cloudy with Drizzle 43 6 43 6 100 100 NNE 8 13 30.09 1019 2 3 N/A
4:12 am 04:12 Cloudy with Drizzle 43 6 43 6 100 100 NNE 9 15 30.06 1018 3 5 N/A
4:52 am 04:52 Cloudy with Drizzle 43 6.1 42 5.6 97 97 NE 9 15 30.03 1017 4 6 0.00 0.00
5:52 am 05:52 Cloudy with Light Rain 43 6.1 42 5.6 97 97 NE 7 11 30.01 1016 5 8 0.01 0.25
6:52 am 06:52 Cloudy with Light Rain 43 6.1 42 5.6 97 97 NE 7 11 29.97 1015 4 6 0.05 1.27
7:52 am 07:52 Cloudy with Light Rain 43 6.1 42 5.6 97 97 NNE 7 11 29.94 1014 5 8 0.11 2.79
8:27 am 08:27 Cloudy with Rain 43 6.1 42 5.6 97 97 NE 8 13 29.91 1013 3 5 0.08 2.03
8:40 am 08:40 Cloudy with Heavy Rain 43 6 43 6 100 100 NE 7 11 29.91 1013 3 4 N/A
8:52 am 08:52 Cloudy with Rain 43 6.1 42 5.6 97 97 NNE 7 11 29.91 1013 2 3 0.18 4.57
9:21 am 09:21 Cloudy with Rain 43 6.1 42 5.6 97 97 NNE 10 17 29.88 1012 2 2 0.13 3.30
9:36 am 09:36 Cloudy with Rain 43 6 43 6 100 100 NNE 9 15 29.88 1012 3 4 N/A
9:45 am 09:45 Cloudy with Rain 43 6.1 42 5.6 97 97 NE 10 17 29.85 1011 2 3 0.35 8.89
9:52 am 09:52 Cloudy with Rain 43 6.1 43 6.1 100 100 NE 8 13 29.86 1011 3 5 0.37 9.40
10:17 am 10:17 Cloudy with Light Rain 44 6.7 43 6.1 96 96 W 5 7 29.88 1012 2 3 0.03 0.76
10:19 am 10:19 Cloudy with Rain 44 6.7 43 6.1 96 96 W 6 9 29.88 1012 2 2 0.05 1.27
10:30 am 10:30 Cloudy with Rain 45 7 45 7 100 100 N 5 7 29.88 1012 1 2 N/A
10:38 am 10:38 Cloudy with Light Rain 45 7 45 7 100 100 N 5 7 29.85 1011 3 5 N/A
10:52 am 10:52 Cloudy with Light Rain 45 7.2 44 6.7 97 97 NW 3 6 29.86 1011 4 6 0.08 2.03
10:56 am 10:56 Cloudy with Light Rain 45 7 45 7 100 100 N N/A 29.85 1011 2 3 N/A
11:04 am 11:04 Cloudy with Light Rain 45 7 45 7 100 100 N 3 6 29.85 1011 2 3 N/A
11:12 am 11:12 Cloudy with Light Rain 45 7 43 6 93 93 N 5 7 29.85 1011 3 5 N/A
11:28 am 11:28 Cloudy with Light Rain 45 7 45 7 100 100 N 6 9 29.83 1010 4 6 N/A
11:34 am 11:34 Cloudy with Light Rain 45 7 45 7 100 100 N 7 11 29.83 1010 3 4 N/A
11:52 am 11:52 Cloudy with Light Rain 45 7.2 44 6.7 97 97 N 5 7 29.81 1010 3 5 0.03 0.76
12:00 pm 12:00 Cloudy with Light Rain 45 7 45 7 100 100 N 5 7 29.80 1009 2 3 N/A
12:07 pm 12:07 Cloudy with Light Rain 45 7.2 44 6.7 97 97 VRB 3 6 29.80 1009 2 3 0.00 0.00
12:21 pm 12:21 Cloudy with Light Rain 45 7.2 44 6.7 97 97 N 5 7 29.80 1009 2 3 0.01 0.25
12:31 pm 12:31 Cloudy with Light Rain 45 7.2 44 6.7 97 97 NNW 6 9 29.77 1008 3 5 0.01 0.25
12:52 pm 12:52 Cloudy with Mist and Fog 45 7.2 44 6.7 97 97 N 6 9 29.76 1008 5 8 0.01 0.25
12:58 pm 12:58 Cloudy with Mist and Fog 46 8 45 7 93 93 N 6 9 29.74 1007 6 10 N/A
1:08 pm 13:08 Cloudy with Mist and Fog 46 8 45 7 93 93 N 6 9 29.74 1007 4 6 N/A
1:52 pm 13:52 Cloudy with Mist and Fog 46 7.8 45 7.2 96 96 N N/A 29.70 1006 4 6 N/A
2:27 pm 14:27 Cloudy with Mist and Fog 45 7.2 45 7.2 100 100 N N/A 29.68 1005 4 6 N/A
2:45 pm 14:45 Cloudy with Mist and Fog 45 7.2 45 7.2 100 100 ENE 3 6 29.68 1005 4 6 N/A
2:52 pm 14:52 Cloudy with Mist and Fog 45 7.2 44 6.7 97 97 E 3 6 29.67 1005 5 8 N/A
3:52 pm 15:52 Cloudy with Mist and Fog 45 7.2 44 6.7 97 97 N N/A 29.65 1004 5 8 N/A
4:37 pm 16:37 Cloudy 45 7.2 45 7.2 100 100 WSW 5 7 29.65 1004 10 16 N/A
4:52 pm 16:52 Cloudy 46 7.8 44 6.7 93 93 WSW 8 13 29.65 1004 10 16 N/A
5:28 pm 17:28 Cloudy 46 8 45 7 93 93 W 6 9 29.62 1003 10 16 N/A
5:43 pm 17:43 Cloudy 46 7.8 44 6.7 93 93 W 8 13 29.62 1003 10 16 N/A
5:52 pm 17:52 Cloudy 46 7.8 44 6.7 93 93 W 7 11 29.62 1003 10 16 N/A
6:20 pm 18:20 Cloudy 46 8 45 7 93 93 W 6 9 29.62 1003 10 16 N/A
6:52 pm 18:52 Cloudy 46 7.8 43 6.1 89 89 W 6 9 29.61 1003 10 16 N/A
7:48 pm 19:48 Cloudy 46 8 43 6 87 87 W 6 9 29.62 1003 10 16 N/A
7:52 pm 19:52 Cloudy 46 7.8 43 6.1 89 89 W 5 7 29.61 1003 10 16 N/A
8:17 pm 20:17 Cloudy 46 7.8 43 6.1 89 89 N N/A 29.62 1003 10 16 N/A
8:52 pm 20:52 Cloudy 45 7.2 44 6.7 97 97 S 6 9 29.59 1002 9 14 N/A
9:05 pm 21:05 Cloudy with Mist and Fog 45 7.2 44 6.7 97 97 S 7 11 29.59 1002 4 6 N/A
9:36 pm 21:36 Cloudy with Mist and Fog 45 7 45 7 100 100 S 9 15 29.59 1002 3 4 N/A
9:41 pm 21:41 Cloudy with Mist and Fog 45 7.2 45 7.2 100 100 SSW 9 15 29.59 1002 2 3 0.00 0.00
9:52 pm 21:52 Cloudy with Mist and Fog 45 7.2 45 7.2 100 100 S 6 9 29.59 1002 2 3 0.00 0.00
10:52 pm 22:52 Cloudy with Mist and Fog 46 7.8 45 7.2 96 96 SW 5 7 29.58 1002 4 6 N/A
11:45 pm 23:45 Cloudy with Mist and Fog 46 7.8 45 7.2 96 96 SSW 6 9 29.59 1002 4 6 N/A
11:52 pm 23:52 Cloudy with Mist and Fog 46 7.8 46 7.8 100 100 S 6 9 29.56 1001 3 5 N/A

Powered by AerisWeather